TimeCST,TemperatureF,Dew PointF,Humidity,Sea Level PressureIn,VisibilityMPH,Wind Direction,Wind SpeedMPH,Gust SpeedMPH,PrecipitationIn,Events,Conditions,WindDirDegrees,DateUTC
12:32 AM,42.8,42.8,100,29.74,2.0,SE,4.6,-,0.01,,Overcast,140,2013-01-11 06:32:00
12:49 AM,42.8,42.8,100,29.74,0.8,ESE,4.6,-,0.01,,Overcast,110,2013-01-11 06:49:00
12:50 AM,43.0,42.1,97,29.75,0.8,ESE,4.6,-,0.01,,Overcast,110,2013-01-11 06:50:00
1:10 AM,44.6,44.6,100,29.73,1.5,South,3.5,-,N/A,,Overcast,170,2013-01-11 07:10:00
1:25 AM,44.6,42.8,93,29.71,0.5,ESE,3.5,-,N/A,Fog,Fog,110,2013-01-11 07:25:00
1:53 AM,43.0,43.0,100,29.73,0.5,SSE,3.5,-,N/A,Fog,Fog,160,2013-01-11 07:53:00
2:00 AM,42.8,42.8,100,29.71,0.2,South,3.5,-,N/A,Fog,Fog,180,2013-01-11 08:00:00
2:53 AM,42.1,42.1,100,29.74,0.2,SSW,8.1,-,N/A,Fog,Fog,210,2013-01-11 08:53:00
3:27 AM,42.8,42.8,100,29.73,0.2,SSW,10.4,-,N/A,Fog,Fog,210,2013-01-11 09:27:00
3:53 AM,43.0,43.0,100,29.73,0.2,SW,8.1,-,N/A,Fog,Fog,230,2013-01-11 09:53:00
4:40 AM,44.6,44.6,100,29.72,0.5,SW,15.0,-,N/A,Fog,Fog,230,2013-01-11 10:40:00
4:53 AM,44.1,44.1,100,29.74,1.2,WSW,12.7,-,N/A,,Overcast,240,2013-01-11 10:53:00
5:06 AM,44.6,44.6,100,29.73,3.0,WSW,15.0,-,N/A,,Overcast,240,2013-01-11 11:06:00
5:21 AM,44.6,44.6,100,29.71,2.0,WSW,9.2,-,N/A,,Overcast,240,2013-01-11 11:21:00
5:53 AM,44.1,44.1,100,29.73,1.8,SW,6.9,-,N/A,,Overcast,230,2013-01-11 11:53:00
6:04 AM,44.6,44.6,100,29.72,0.5,SW,6.9,-,N/A,Fog,Fog,230,2013-01-11 12:04:00
6:12 AM,42.8,42.8,100,29.73,0.2,SW,8.1,-,N/A,Fog,Fog,220,2013-01-11 12:12:00
7:53 AM,44.1,44.1,100,29.77,0.2,SSW,10.4,-,N/A,Fog,Fog,210,2013-01-11 13:53:00
8:38 AM,46.4,44.6,93,29.76,1.0,SSW,8.1,-,N/A,,Mist,200,2013-01-11 14:38:00
8:53 AM,46.0,45.0,96,29.77,2.0,SSW,10.4,-,N/A,,Overcast,200,2013-01-11 14:53:00
9:10 AM,46.4,46.4,100,29.75,1.8,SSW,11.5,-,N/A,,Overcast,200,2013-01-11 15:10:00
9:17 AM,46.4,46.4,100,29.75,2.0,South,11.5,-,N/A,,Overcast,190,2013-01-11 15:17:00
9:32 AM,46.4,46.4,100,29.75,3.0,South,10.4,-,N/A,,Overcast,190,2013-01-11 15:32:00
9:53 AM,46.9,46.9,100,29.75,3.0,South,11.5,-,N/A,,Overcast,190,2013-01-11 15:53:00
10:53 AM,48.0,46.9,96,29.74,5.0,South,12.7,-,N/A,,Overcast,180,2013-01-11 16:53:00
11:41 AM,51.8,48.2,88,29.70,7.0,South,11.5,-,N/A,,Overcast,170,2013-01-11 17:41:00
11:53 AM,51.1,48.9,92,29.71,7.0,South,13.8,-,N/A,,Overcast,180,2013-01-11 17:53:00
12:28 PM,53.6,50.0,88,29.67,10.0,South,16.1,23.0,N/A,,Scattered Clouds,180,2013-01-11 18:28:00
12:53 PM,54.0,48.0,80,29.65,10.0,South,19.6,25.3,N/A,,Scattered Clouds,190,2013-01-11 18:53:00
1:53 PM,53.6,48.2,82,29.65,10.0,South,12.7,-,N/A,,Clear,180,2013-01-11 19:53:00
2:53 PM,54.0,48.0,80,29.63,10.0,South,18.4,25.3,N/A,,Clear,180,2013-01-11 20:53:00
3:53 PM,55.0,48.0,77,29.63,10.0,South,20.7,28.8,N/A,,Clear,190,2013-01-11 21:53:00
4:53 PM,54.0,46.9,77,29.64,10.0,South,17.3,-,N/A,,Clear,190,2013-01-11 22:53:00
5:53 PM,55.0,46.9,74,29.64,10.0,South,17.3,-,N/A,,Clear,190,2013-01-11 23:53:00
6:53 PM,55.0,46.0,72,29.63,10.0,South,17.3,-,N/A,,Clear,180,2013-01-12 00:53:00
7:53 PM,55.0,45.0,69,29.63,10.0,South,16.1,26.5,N/A,,Clear,180,2013-01-12 01:53:00
8:53 PM,53.1,45.0,74,29.66,10.0,SSW,13.8,-,N/A,,Clear,200,2013-01-12 02:53:00
9:53 PM,54.0,45.0,72,29.66,10.0,SSW,12.7,-,N/A,,Clear,200,2013-01-12 03:53:00
10:53 PM,53.1,45.0,74,29.67,10.0,SSW,11.5,20.7,N/A,,Clear,200,2013-01-12 04:53:00
11:53 PM,54.0,45.0,72,29.66,10.0,South,17.3,24.2,N/A,,Clear,190,2013-01-12 05:53:00